Location: Alexandria
(38.8050°N, 77.0470°W)
Time: 21:18:18
(UTC-04:00)

OTV 5 (USA 277) - Visible Passes

Search period start: 26 May 2018 00:00
Search period end: 05 June 2018 00:00
Orbit: 308 x 326 km, 54.5° (Epoch: 06 May)

Date Brightness Start Highest point End Pass type
(mag) Time Alt. Az. Time Alt. Az. Time Alt. Az.
28 May ? 04:40:45 12° S 04:42:44 23° SE 04:44:59 10° ENE visible
29 May ? 04:54:46 14° SW 04:57:01 77° SE 04:59:46 10° NE visible
30 May ? 03:37:50 13° ESE 03:37:50 13° ESE 03:38:51 10° E visible
30 May ? 05:08:56 10° WSW 05:11:28 33° NW 05:14:00 10° NNE visible
31 May ? 03:51:42 39° SE 03:51:42 39° SE 03:54:12 10° ENE visible
01 Jun ? 04:05:31 48° W 04:05:58 57° NW 04:08:41 10° NE visible
02 Jun ? 02:48:24 10° ENE 02:48:24 10° ENE 02:48:27 10° ENE visible
02 Jun ? 04:19:15 16° WNW 04:20:29 22° NW 04:22:43 10° NNE visible
03 Jun ? 03:02:05 22° NE 03:02:05 22° NE 03:03:15 10° NE visible
03 Jun ? 04:34:15 10° NW 04:35:10 11° NNW 04:36:03 10° N visible
04 Jun ? 03:15:43 27° N 03:15:43 27° N 03:17:29 10° NNE visible
